Back to catalog

FENGYUN 1C DEB

AliveSSO
NORAD 31724·DEBRIS·🇨🇳 China

Launched May 10, 1999 from Taiyuan Satellite Launch Center

Loading…

Next Passes (next 24 hours)

TLE

FreshSource: Space-Track

Epoch: Sep 12, 2026, 22:40 UTC

1 31724U 99025CDX 26255.94489323  .00009729  00000-0  19672-2 0  9998
2 31724  97.8554 249.6694 0140482 109.1455 252.5011 14.55418285684738

Track FENGYUN 1C DEB in real time with AllMySat

Download on the App Store